This is the latest recevied weather packets stored in our database for station/object KB9ZGZ. If no packets are shown the sender has not sent any weather packets the latest 10 day(s).
| Time | Temp. | Humidity | Pressure | Rain* | Wind** | Luminosity | Snow |
|---|---|---|---|---|---|---|---|
| 1777815027 | 11.11° C | 70% | 1012.2 hPa | 0.25 mm | - | - | - |
| 1777814127 | 10.56° C | 75% | 1012.3 hPa | 0.25 mm | - | - | - |
| 1777813221 | 9.44° C | 76% | 1012.6 hPa | 0 mm | - | - | - |
| 1777812323 | 8.89° C | 78% | 1012.6 hPa | 0 mm | - | - | - |
| 1777811419 | 8.33° C | 80% | 1012.6 hPa | 0 mm | - | - | - |
| 1777810519 | 7.78° C | 80% | 1012.7 hPa | 0 mm | - | - | - |
| 1777809651 | 7.78° C | 80% | 1012.4 hPa | 0 mm | - | - | - |
| 1777808751 | 7.78° C | 80% | 1012 hPa | 0 mm | - | - | - |
| 1777807850 | 7.22° C | 80% | 1012 hPa | 0 mm | - | - | - |
| 1777806946 | 7.22° C | 80% | 1012 hPa | 0 mm | - | - | - |
| 1777806046 | 7.22° C | 79% | 1012.1 hPa | 0 mm | - | - | - |
| 1777805143 | 7.22° C | 78% | 1012 hPa | 0 mm | - | - | - |
| 1777804239 | 7.78° C | 77% | 1012.1 hPa | 0 mm | - | - | - |
| 1777803338 | 7.78° C | 76% | 1012.2 hPa | 0 mm | - | - | - |
| 1777802438 | 7.78° C | 76% | 1012.5 hPa | 0 mm | - | - | - |
| 1777801538 | 7.78° C | 75% | 1012.6 hPa | 0 mm | - | - | - |
| 1777800633 | 7.78° C | 75% | 1012.7 hPa | 0 mm | - | - | - |
| 1777799734 | 7.78° C | 76% | 1012.9 hPa | 0 mm | - | - | - |
| 1777798835 | 7.78° C | 76% | 1012.9 hPa | 0 mm | - | - | - |
| 1777797932 | 7.22° C | 77% | 1013.1 hPa | 0 mm | - | - | - |
| 1777797029 | 7.22° C | 77% | 1013.1 hPa | 0 mm | - | - | - |
| 1777796136 | 7.22° C | 78% | 1013.1 hPa | 0 mm | - | - | - |
| 1777795228 | 7.22° C | 78% | 1013.2 hPa | 0 mm | - | - | - |
| 1777794330 | 6.67° C | 79% | 1013.2 hPa | 0 mm | - | - | - |
| 1777793423 | 6.67° C | 79% | 1013.2 hPa | 0 mm | - | - | - |
* Rain since midnight (hover to see other rain measurements)
** Current wind speed in m/s (hover to see current wind gust speed)